Regional Weather Roundup
Issued by NWS

Home | Current Version | Previous Version | Graphics & Text | Print | Product List | Glossary On
Versions: 1 2 3 4 5 6 7 8 9 10 11 12 13 14 15 16 17 18 19 20 21 22 23 24 25 26 27 28
000
ASUS45 KSLC 230710
RWRUT

UTAH REGIONAL WEATHER ROUNDUP
NATIONAL WEATHER SERVICE SALT LAKE CITY UT
1200 AM MST FRI FEB 23 2018

UTZ001>011-023>025-230800-

NORTHERN UTAH

CITY           SKY/WX    TMP DP  RH WIND       PRES   REMARKS
BRIGHAM CITY   CLOUDY    27  24  87 N5        29.97S WCI  22
HILL AFB       CLOUDY    25  19  80 NE3       29.93F
LOGAN          CLOUDY    20  14  77 CALM      29.98S HAZE
OGDEN          LGT SNOW  26  23  88 NE6       29.94F FOG     WCI  19
SALT LAKE CITY CLOUDY    31  25  78 SE5       29.95S WCI  26
TOOELE VALLEY  CLOUDY    25  23  93 CALM      29.95S
WENDOVER       NOT AVBL
HEBER CITY     PTSUNNY   21  19  93 CALM      29.90S
WEST JORDAN    CLOUDY    26  25  96 SW6       29.94F WCI  19

$$

UTZ011>015-024>027-230800-

CENTRAL/NORTHEAST UTAH

CITY           SKY/WX    TMP DP  RH WIND       PRES   REMARKS
PROVO AIRPORT  CLOUDY    28  20  71 E8        29.95F WCI  20
MOAB/CANYONLAN MOCLDY    32  13  45 VRB3      29.95S
DELTA          PTCLDY    21  14  73 S9        29.90F WCI  11
PRICE          CLOUDY    24  23  96 N3        29.93S
RICHFIELD      MOCLDY    23  23 100 CALM      29.93
VERNAL         LGT SNOW  21  17  84 NW5       29.98S FOG     WCI  15

$$

UTZ013>016-019>022-027-230800-

SOUTHERN UTAH

CITY           SKY/WX    TMP DP  RH WIND       PRES   REMARKS
BRYCE CANYON   SNOW      19  18  95 SE9       29.88F VSB 1/2 WCI   8
CEDAR CITY     HVY SNOW  25  25 100 W9        29.89S VSB 1/4 WCI  15
MILFORD        MOCLDY    25  20  81 SW10      29.89S WCI  15
ST GEORGE      CLOUDY    36  33  89 NE7       29.98R WCI  30
HANKSVILLE     CLOUDY    32  12  43 S3        29.98F
KANAB          CLOUDY    30  21  69 SE5       30.00S WCI  25
BLANDING         N/A     23  11  59 NW3       30.06S

$$

REGIONAL REPORTS     COLORADO/ARIZONA

CITY           SKY/WX    TMP DP  RH WIND       PRES   REMARKS
CRAIG, CO      CLOUDY    23  16  74 E6        29.97S WCI  16
GRAND JUNCTION CLOUDY    28  27  96 SE14      30.00S WCI  17
RIFLE, CO      LGT SNOW  26  25  96 SE5       30.00S FOG     WCI  20
MONTROSE, CO   CLOUDY    28  16  60 MISG      30.01R
CORTEZ, CO     CLOUDY    28   7  41 S12       30.03R WCI  18
COLORADO CITY  LGT SNOW  32  28  86 SW12G18   29.98S WCI  23
PAGE, AZ       CLOUDY    36  22  56 N5        29.97F WCI  32
GRAND CANYON   CLOUDY    26  18  71 S16G28    29.97F WCI  14
KINGMAN, AZ    MOCLDY    43  26  51 S31G39    30.00F
FLAGSTAFF, AZ  MOCLDY    25  16  68 SW18G28   30.01F WCI  11

$$

REGIONAL REPORTS    NEVADA/IDAHO/WYOMING

CITY           SKY/WX    TMP DP  RH WIND       PRES   REMARKS
LAS VEGAS, NV  PTCLDY    47   9  21 SW12G21   29.94S
ELY, NY        CLOUDY    16  11  80 CALM      29.88F
ELKO, NV       MOCLDY    14  10  84 CALM      29.93S
POCATELLO, ID  CLOUDY    22  17  81 SW8       30.02R WCI  12
BURLEY, ID     PTCLDY    14  11  87 SW7       30.02S WCI   4
EVANSTON, WY   LGT SNOW   9   5  84 E8        29.87F VSB 1   WCI  -3
ROCK SPRINGS,  PTCLDY     8   3  80 S5        29.93F WCI   0

$$




USA.gov is the U.S. government's official web portal to all federal, state and local government web resources and services.